This demonstration page uses our WeatherBlox Daily Observations layout. Learn more.

Left ArrowRight Arrow

30.21309, -93.2044

Hourly Observations for April 18, 2022

Temp ( °F °C ) Dew Point ( °F °C ) Humidity (%) Winds ( mph kmh ) Pressure ( in mb ) Visibility ( mi km ) Precip ( " mm )
12:15 am 00:15 Cloudy 74 23.6 70 21 85 85 SW 6 9 29.93 1014 10 16 0.00 0.00
12:35 am 00:35 Partly Cloudy 74 23.3 70 21 87 87 W 6 9 29.94 1014 10 16 0.00 0.00
12:55 am 00:55 Mostly Cloudy 74 23.3 70 21 87 87 WNW 5 7 29.94 1014 10 16 0.00 0.00
1:15 am 01:15 Cloudy 74 23.2 70 20.9 87 87 NW 8 13 29.95 1014 10 16 0.00 0.00
1:35 am 01:35 Cloudy 74 23.5 69 20.7 84 84 NW 6 9 29.96 1015 10 16 0.00 0.00
1:55 am 01:55 Cloudy 74 23.2 69 20.7 86 86 NNE 12 19 29.96 1015 10 16 0.00 0.00
2:15 am 02:15 Cloudy 73 22.7 68 20.2 86 86 NNE 14 22 29.96 1015 10 16 0.00 0.00
2:35 am 02:35 Cloudy 71 21.9 67 19.2 85 85 NNE 12 19 29.97 1015 10 16 0.00 0.00
2:55 am 02:55 Cloudy 71 21.7 65 18.5 82 82 NNE 14 22 29.97 1015 10 16 0.00 0.00
3:15 am 03:15 Cloudy 71 21.4 64 18 81 81 N 10 17 29.97 1015 10 16 0.00 0.00
3:35 am 03:35 Mostly Cloudy 70 21 63 17.2 79 79 NNE 6 9 29.98 1015 10 16 0.00 0.00
3:55 am 03:55 Mostly Cloudy 70 21 63 17 78 78 NNE 10 17 29.98 1015 10 16 0.00 0.00
4:15 am 04:15 Cloudy 69 20.6 62 16.5 77 77 NNE 8 13 29.98 1015 10 16 0.00 0.00
4:35 am 04:35 Partly Cloudy 68 19.9 61 16 78 78 N 8 13 29.98 1015 10 16 0.00 0.00
4:55 am 04:55 Clear 67 19.5 59 15.2 76 76 NNE 7 11 29.98 1015 10 16 0.00 0.00
5:15 am 05:15 Clear 66 19.1 58 14.7 76 76 NNE 8 13 29.99 1016 10 16 0.00 0.00
5:35 am 05:35 Clear 66 18.7 58 14.6 77 77 NNE 6 9 29.99 1016 10 16 0.00 0.00
6:00 am 06:00 Mostly Clear 64 18 57 14 78 78 N 12 19 29.99 1016 10 16 0.00 0.00
6:47 am 06:47 Cloudy 63 17 57 14 83 83 NNE 12 19 30.02 1017 10 16 0.00 0.00
7:47 am 07:47 Cloudy 63 17 55 13 77 77 N 15 24 30.06 1018 10 16 0.00 0.00
8:45 am 08:45 Mostly Cloudy 64 18 57 14 78 78 NNE 14 22 30.03 1017 10 16 0.00 0.00
9:47 am 09:47 Mostly Cloudy 63 17 55 13 77 77 NNE 13 20 30.12 1020 10 16 0.00 0.00
10:55 am 10:55 Mostly Cloudy 64 18 55 13 73 73 N 15 24 30.16 1021 10 16 0.00 0.00
11:55 am 11:55 Mostly Cloudy 64 18 54 12 68 68 N 14 22 30.16 1021 10 16 0.00 0.00
12:45 pm 12:45 Partly Cloudy 66 19 55 13 68 68 NE 14 22 30.16 1021 10 16 0.00 0.00
1:45 pm 13:45 Mostly Sunny 68 20 55 13 64 64 NNE 14 22 30.16 1021 10 16 0.00 0.00
2:55 pm 14:55 Mostly Sunny 70 21 54 12 57 57 NNE 10 17 30.16 1021 10 16 0.00 0.00
3:50 pm 15:50 Mostly Sunny 73 23 54 12 50 50 N 12 19 30.13 1020 10 16 0.00 0.00
4:53 pm 16:53 Mostly Sunny 75 24 54 12 47 47 NNE 10 17 30.11 1020 10 16 0.00 0.00
5:55 pm 17:55 Mostly Sunny 75 24 54 12 47 47 NNE 12 19 30.11 1020 10 16 0.00 0.00
6:50 pm 18:50 Mostly Sunny 73 23 54 12 50 50 NE 10 17 30.11 1020 10 16 0.00 0.00
7:55 pm 19:55 Mostly Clear 64 18 52 11 64 64 ENE 5 7 30.14 1021 10 16 0.00 0.00
8:55 pm 20:55 Mostly Clear 64 18 52 11 64 64 NE 7 11 30.15 1021 10 16 0.00 0.00
9:55 pm 21:55 Mostly Clear 63 17 50 10 64 64 ENE 9 15 30.18 1022 10 16 0.00 0.00
10:15 pm 22:15 Clear 62 16.4 50 9.8 65 65 NE 8 13 30.18 1022 10 16 0.00 0.00
10:30 pm 22:30 Clear 61 15.9 50 10 68 68 NE 6 9 30.19 1022 10 16 0.00 0.00
10:55 pm 22:55 Clear 60 15.5 50 10.1 70 70 ENE 7 11 30.19 1022 N/A 0.00 0.00
11:15 pm 23:15 Clear 60 15.4 51 10.3 72 72 ENE 12 19 30.20 1023 10 16 0.00 0.00
11:35 pm 23:35 Clear 60 15.3 51 10.3 72 72 ENE 12 19 30.21 1023 10 16 0.00 0.00
11:55 pm 23:55 Clear 59 15.1 50 10.2 73 73 ENE 12 19 30.21 1023 10 16 0.00 0.00

Powered by AerisWeather